Content
SEND FEEDBACK

Daily
Averages
Monthly
Summary
United States of America

PUT IN BAY, OHIO


Home > North America > United States > Ohio
Elevation: 561 feet     Latitude: 41 39N     Longitude: 082 48W

WEATHER
 
SELECT A DAY
Number of Records: 122,784;   Date Range: 12/10/00 - 8/20/14
 
SHARE

PRINT THIS DATA

[ ← Previous Day ]
WEATHER ALMANAC - JANUARY 29, 2014
[ Next Day → ]
[ °C ]   °F
Weather ElementAverageHighLow
Temperature6.6 °F13.8 °F (5:00 pm)-1.1 °F (1:00 am)
Dewpoint-1.1 °F3.7 °F (4:00 pm)-8 °F (1:00 am)
Humidity69.3 %83 % (8:00 am)50 % (7:00 pm)
Barometer30.22 in30.26 in (7:00 pm)30.18 in (2:00 pm)
Wind Speed15.4 mph21.9 mph (11:00 am)
Wind Gust28.8 mph (11:00 am)
Weather ElementAverage
Wind DirectionWSW (240 °)

Weather ElementTotal
Precipitation---
Heating Degree Days58.7 (Base 65)
Averaged from 27 records on January 29, 2014
WEATHER CONDITIONS BREAKOUT
WIND DIRECTION BREAKOUT
WEATHER BY HOUR - JANUARY 29, 2014
[ °C ]   °F
Local TimeTemperatureDewpointHumidityBarometerVisibilityWind DirectionWind SpeedGust SpeedPrecipitationEventsConditions
1:00 AM-1.0 °F-8.0 °F61 %30.25 inWSW (250°)13.8 mph
1:00 AM-1.1 °F-7.6 °F74 %30.25 inWSW (250°)13.8 mph
2:00 AM-0.6 °F-7.2 °F73 %30.24 inWSW (240°)13.8 mph20.7 mph
3:00 AM-1.1 °F-6.9 °F77 %30.22 inSW (230°)11.5 mph
4:00 AM-0.6 °F-6.3 °F77 %30.21 inWSW (240°)12.7 mph
5:00 AM-0.9 °F-6.2 °F79 %30.20 inSW (230°)13.8 mph
6:00 AM-0.4 °F-5.4 °F79 %30.19 inSW (230°)16.1 mph23.0 mph
7:00 AM0.0 °F-5.0 °F69 %30.19 inSW (230°)16.1 mph
7:00 AM0.3 °F-5.1 °F78 %30.19 inSW (230°)16.1 mph23.0 mph
8:00 AM1.0 °F-3.1 °F83 %30.19 inWSW (240°)18.4 mph24.2 mph
9:00 AM2.5 °F-4.2 °F74 %30.20 inWSW (240°)17.3 mph24.2 mph
10:00 AM4.5 °F-2.4 °F73 %30.20 inWSW (240°)16.1 mph23.0 mph
11:00 AM8.2 °F0.7 °F71 %30.21 inWSW (250°)21.9 mph28.8 mph
12:00 PM9.5 °F1.8 °F71 %30.19 inWSW (250°)20.7 mph28.8 mph
1:00 PM11.0 °F2.0 °F54 %30.19 inWest (260°)20.7 mph
1:00 PM10.6 °F1.9 °F68 %30.19 inWest (260°)20.7 mph26.5 mph
2:00 PM11.5 °F2.7 °F68 %30.18 inWest (260°)19.6 mph27.6 mph
3:00 PM12.6 °F2.1 °F63 %30.18 inWSW (250°)18.4 mph25.3 mph
4:00 PM13.5 °F3.7 °F65 %30.19 inWSW (250°)17.3 mph23.0 mph
5:00 PM13.8 °F3.0 °F62 %30.22 inWSW (250°)17.3 mph23.0 mph
6:00 PM12.4 °F2.5 °F65 %30.24 inWSW (250°)11.5 mph
7:00 PM13.0 °F3.0 °F50 %30.26 inSW (230°)12.7 mph
7:00 PM12.6 °F2.7 °F65 %30.26 inSW (230°)12.7 mph18.4 mph
8:00 PM11.8 °F3.0 °F68 %30.26 inSW (230°)11.5 mph
9:00 PM11.7 °F3.2 °F69 %30.26 inSW (230°)10.4 mph
10:00 PM11.5 °F2.7 °F68 %30.25 inSW (220°)10.4 mph
11:00 PM11.5 °F2.8 °F68 %30.25 inSSW (210°)11.5 mph
Hourly data recorded from CXHA, located miles away from Put In Bay, Ohio







STORIES FROM OUR PARTNERS